[Iaude] MPEC G126: 2024 GE2 [a=0.97,e=0.16,i=4.4,H=27.9]

mpec at cfa.harvard.edu mpec at cfa.harvard.edu
Wed Apr 10 04:27:47 EDT 2024


M.P.E.C. 2024-G126                               Issued 2024 April 10, 08:26 UT

     The Minor Planet Electronic Circulars contain information on unusual
         minor planets, routine data on comets and natural satellites,
         and occasional editorial announcements.  They are published
    on behalf of Division F of the International Astronomical Union by the
          Minor Planet Center, Smithsonian Astrophysical Observatory,
                          Cambridge, MA 02138, U.S.A.
			  
             Prepared using the Tamkin Foundation Computer Network

                              MPC at CFA.HARVARD.EDU
            URL https://www.minorplanetcenter.net/    ISSN 1523-6714

                                    2024 GE2                                    


Observations:
     K24G02E*KC2024 04 08.94530 13 11 05.25 +38 52 53.0          19.8 GXEG126L51
     K24G02E KC2024 04 08.94655 13 11 02.93 +38 52 02.8          19.7 GXEG126L51
     K24G02E KC2024 04 08.94781 13 11 00.65 +38 51 13.5          19.5 GXEG126L51
     K24G02E KC2024 04 08.98162 13 09 57.95 +38 28 32.8          20.2 GXEG126L51
     K24G02E KC2024 04 08.98296 13 09 55.55 +38 27 38.7          19.8 GXEG126L51
     K24G02E KC2024 04 08.98429 13 09 53.20 +38 26 45.9          19.5 GXEG126L51
     K24G02E KC2024 04 08.98563 13 09 50.66 +38 25 50.9          20.1 GXEG126L51
     K24G02E hC2024 04 08.99391513 09 50.20 +38 20 50.2          19.9 GVEG126L01
     K24G02E hC2024 04 08.99505413 09 48.06 +38 20 05.3          20.0 GVEG126L01
     K24G02E hC2024 04 08.99619113 09 46.03 +38 19 20.7          19.7 GVEG126L01
     K24G02E hC2024 04 08.99762813 09 43.38 +38 18 23.4          19.6 GVEG126L01
     K24G02E hC2024 04 08.99903713 09 40.80 +38 17 28.0          19.6 GVEG126L01
     K24G02E KB2024 04 09.82317912 52 20.44 +29 46 42.0          19.8 GXEG126958
     K24G02E KB2024 04 09.82909712 52 13.18 +29 43 23.9          19.0 GXEG126958
     K24G02E KC2024 04 09.83469512 52 02.201+29 39 05.11               VEG126J95
     K24G02E KB2024 04 09.83501312 52 05.90 +29 40 07.9          19.6 GXEG126958
     K24G02E KC2024 04 09.83935 12 51 42.19 +29 38 56.9          19.8 GXEG126L51
     K24G02E KC2024 04 09.84080412 51 54.790+29 35 40.67         20.0 GVEG126J95
     K24G02E KC2024 04 09.84170 12 51 39.08 +29 37 37.3          19.8 GXEG126L51
     K24G02E KC2024 04 09.84391 12 51 36.09 +29 36 21.1          20.0 GXEG126L51
     K24G02E KC2024 04 09.84643612 51 47.885+29 32 32.68         19.7 GVEG126J95
     K24G02E KC2024 04 09.85186912 51 41.258+29 29 31.85         20.1 GVEG126J95
     K24G02E 7C2024 04 09.97110012 49 14.966+28 25 45.95         19.8 GVEG126Z84
     K24G02E 7C2024 04 09.97224912 49 13.438+28 25 07.49         19.7 GVEG126Z84
     K24G02E 7C2024 04 09.97340912 49 11.950+28 24 29.17         19.8 GVEG126Z84

Observer details:
958 Observatoire de Dax.  Observer P. Dupouy.  0.50-m f/4.5 Reflector + CMO.
J95 Great Shefford.  Observer P. Birtwhistle.  0.41-m f/6.3 Schmidt-Cassegrain
    + CCD.
L01 Visnjan Observatory, Tican.  Observer K. Korlevic.  1.0-m f/2.9 reflector
    + CCD.
L51 MARGO, Nauchnyi.  Observer G. Borisov.  0.50-m f/1.9 reflector + CCD.
Z84 Calar Alto-Schmidt.  Observers F. Ocana, R. Kresken, M. Micheli, L.
    Conversi.  Measurers F. Ocana, M. Micheli.  0.8-m f/3 Schmidt + CCD.

Orbital elements:
2024 GE2                                                 Earth MOID = 0.0112 AU
Epoch 2024 Mar. 31.0 TT = JDT 2460400.5                 MPC                     
M  87.23328              (2000.0)            P               Q                  
n   1.03108740     Peri.   60.23237     +0.08088555     -0.99619214             
a   0.9703738      Node    25.19031     +0.88604989     +0.05691493             
e   0.1563497      Incl.    4.38446     +0.45647905     +0.06604483             
P   0.96           H   27.91          G   0.15           U   5                  
Residuals in seconds of arc
240408 L51  0.1-  0.9-    240408 L01  0.2+  0.3+    240409 L51  0.1+  0.0
240408 L51  0.2+  1.0-    240408 L01  0.1+  0.2+    240409 L51  0.9-  1.1-
240408 L51  1.2+  0.2+    240408 L01  0.1+  0.8+    240409 J95  0.0   0.2-
240408 L51  0.8-  0.2-    240409 958  1.0-  1.4+    240409 J95  0.4+  0.2+
240408 L51  0.3-  0.2-    240409 958  0.7-  0.2-    240409 Z84  0.3+  0.1-
240408 L51  0.5+  0.6+    240409 J95  0.1-  0.5+    240409 Z84  0.2-  0.2-
240408 L51  0.7-  0.2-    240409 958  0.4-  0.3+    240409 Z84  0.1-  0.3+
240408 L01  0.1+  0.7-    240409 L51  0.3+  0.3-
240408 L01  0.5-  0.3-    240409 J95  0.3+  0.1-

Ephemeris:
2024 GE2                 a,e,i = 0.97, 0.16, 4                   q = 0.8187
Date    TT    R. A. (2000) Decl.     Delta      r    Elong.  Phase     V
2024 03 11    23 16 15.6 +31 18 07   0.07646 0.9319    35.1   142.2    29.3
...
2024 03 26    22 49 12.3 +42 52 40   0.03523 0.9731    45.5   133.0    26.6
...
2024 04 03    21 03 28.3 +63 30 44   0.01646 0.9946    70.9   108.2    23.0
...
2024 04 09    13 09 50.6 +38 18 57   0.01215 1.0101   134.1    45.4    20.1
2024 04 10    12 48 41.1 +28 11 48   0.01333 1.0126   143.3    36.2    20.0
2024 04 11    12 34 22.2 +19 49 50   0.01493 1.0151   149.8    29.7    20.1
...
2024 04 17    11 59 32.8 -04 54 21   0.02852 1.0296   154.3    25.0    21.4
...
2024 04 25    11 48 55.1 -14 39 46   0.05000 1.0476   145.6    32.9    22.9
...
2024 05 10    11 51 55.7 -20 17 08   0.09396 1.0768   133.7    42.7    24.6

A. U. Tomatic                (C) Copyright 2024 MPC           M.P.E.C. 2024-G126





More information about the Iaude mailing list